| time (UTC) | temp C | wind direction | speed KPH | gust KPH | rain 1hr cm | rain 24hr cm | rain mn cm | humidity % | barometer mb |
| 20260506150020 | 17 | 225 | 0.0 | 0.0 | 0.00 | 0.00 | 0.00 | 10 | 1005.4 |
| 20260506145911 | 17 | 45 | 0.0 | 0.0 | 0.00 | 0.00 | 0.00 | 10 | 1005.4 |
| 20260506145802 | 17 | 45 | 0.0 | 0.0 | 0.00 | 0.00 | 0.00 | 10 | 1005.4 |
| 20260506145653 | 17 | 45 | 0.0 | 0.0 | 0.00 | 0.00 | 0.00 | 10 | 1005.3 |
| 20260506145545 | 16 | 45 | 0.0 | 0.0 | 0.00 | 0.00 | 0.00 | 10 | 1005.3 |
| 20260506145000 | 16 | 45 | 1.6 | 0.0 | 0.00 | 0.00 | 0.00 | 10 | 1005.8 |
| 20260506144851 | 16 | 45 | 3.2 | 0.0 | 0.00 | 0.00 | 0.00 | 10 | 1005.9 |
| 20260506144742 | 16 | 315 | 3.2 | 0.0 | 0.00 | 0.00 | 0.00 | 10 | 1006.0 |
| 20260506144633 | 16 | 0 | 4.8 | 0.0 | 0.00 | 0.00 | 0.00 | 10 | 1006.1 |
| 20260506144525 | 16 | 315 | 3.2 | 0.0 | 0.00 | 0.00 | 0.00 | 10 | 1006.3 |
| 20260506144416 | 16 | 315 | 3.2 | 0.0 | 0.00 | 0.00 | 0.00 | 10 | 1006.4 |
| 20260506144307 | 16 | 315 | 1.6 | 0.0 | 0.00 | 0.00 | 0.00 | 10 | 1006.5 |
| 20260506144158 | 16 | 270 | 1.6 | 0.0 | 0.00 | 0.00 | 0.00 | 10 | 1006.7 |
| 20260506143832 | 16 | 270 | 3.2 | 0.0 | 0.00 | 0.00 | 0.00 | 10 | 1007.3 |
| 20260506143723 | 16 | 315 | 9.7 | 0.0 | 0.00 | 0.00 | 0.00 | 10 | 1007.6 |
| 20260506143614 | 16 | 315 | 1.6 | 0.0 | 0.00 | 0.00 | 0.00 | 10 | 1007.9 |
| 20260506143505 | 16 | 270 | 3.2 | 0.0 | 0.00 | 0.00 | 0.00 | 10 | 1008.3 |
| 20260506143357 | 17 | 270 | 3.2 | 0.0 | 0.00 | 0.00 | 0.00 | 10 | 1008.6 |
| 20260506143248 | 17 | 45 | 1.6 | 0.0 | 0.00 | 0.00 | 0.00 | 10 | 1008.9 |
| 20260506143139 | 17 | 270 | 1.6 | 0.0 | 0.00 | 0.00 | 0.00 | 10 | 1009.1 |
| 20260506142921 | 18 | 315 | 1.6 | 0.0 | 0.00 | 0.00 | 0.00 | 10 | 1009.4 |
| 20260506142813 | 18 | 270 | 1.6 | 0.0 | 0.00 | 0.00 | 0.00 | 10 | 1009.4 |
| 20260506142704 | 18 | 225 | 1.6 | 0.0 | 0.00 | 0.00 | 0.00 | 10 | 1009.5 |
| 20260506142446 | 18 | 315 | 1.6 | 0.0 | 0.00 | 0.00 | 0.00 | 10 | 1009.7 |
| 20260506142120 | 18 | 270 | 1.6 | 0.0 | 0.00 | 0.00 | 0.00 | 10 | 1009.6 |
| 20260506142011 | 18 | 315 | 1.6 | 0.0 | 0.00 | 0.00 | 0.00 | 10 | 1009.7 |
| 20260506141902 | 18 | 270 | 1.6 | 0.0 | 0.00 | 0.00 | 0.00 | 10 | 1009.6 |
| 20260506141427 | 18 | 315 | 1.6 | 0.0 | 0.00 | 0.00 | 0.00 | 10 | 1009.6 |
| 20260506141209 | 18 | 315 | 1.6 | 0.0 | 0.00 | 0.00 | 0.00 | 10 | 1009.8 |
| 20260506141100 | 18 | 45 | 1.6 | 0.0 | 0.00 | 0.00 | 0.00 | 10 | 1009.9 |
| 20260506140952 | 18 | 315 | 3.2 | 0.0 | 0.00 | 0.00 | 0.00 | 10 | 1010.2 |
| 20260506140517 | 20 | 0 | 1.6 | 0.0 | 0.00 | 0.00 | 0.00 | 10 | 1010.1 |
| 20260506140259 | 20 | 270 | 1.6 | 0.0 | 0.00 | 0.00 | 0.00 | 10 | 1009.7 |
| 20260506140150 | 18 | 270 | 1.6 | 0.0 | 0.00 | 0.00 | 0.00 | 10 | 1010.1 |
| 20260506135933 | 19 | 225 | 1.6 | 0.0 | 0.00 | 0.00 | 0.00 | 10 | 1010.2 |
| 20260506135715 | 20 | 225 | 1.6 | 0.0 | 0.00 | 0.00 | 0.00 | 10 | 1010.3 |
| 20260506135606 | 20 | 270 | 1.6 | 0.0 | 0.00 | 0.00 | 0.00 | 10 | 1010.3 |
| 20260506135349 | 19 | 0 | 1.6 | 0.0 | 0.00 | 0.00 | 0.00 | 10 | 1010.4 |
| 20260506135240 | 19 | 315 | 1.6 | 0.0 | 0.00 | 0.00 | 0.00 | 10 | 1010.5 |
| 20260506135023 | 20 | 45 | 1.6 | 0.0 | 0.00 | 0.00 | 0.00 | 10 | 1010.6 |
| 20260506134914 | 20 | 315 | 1.6 | 0.0 | 0.00 | 0.00 | 0.00 | 10 | 1010.8 |
| 20260506134805 | 20 | 0 | 3.2 | 0.0 | 0.00 | 0.00 | 0.00 | 10 | 1011.1 |
| 20260506134547 | 21 | 45 | 1.6 | 0.0 | 0.00 | 0.00 | 0.00 | 10 | 1011.0 |
| 20260506134438 | 22 | 225 | 1.6 | 0.0 | 0.00 | 0.00 | 0.00 | 10 | 1011.2 |
| 20260506134112 | 22 | 270 | 1.6 | 0.0 | 0.00 | 0.00 | 0.00 | 10 | 1011.1 |
| 20260506134003 | 22 | 270 | 0.0 | 0.0 | 0.00 | 0.00 | 0.00 | 10 | 1010.6 |
| 20260506133855 | 21 | 0 | 1.6 | 0.0 | 0.00 | 0.00 | 0.00 | 10 | 1010.5 |
| 20260506133637 | 20 | 90 | 3.2 | 0.0 | 0.00 | 0.00 | 0.00 | 10 | 1009.9 |
| 20260506133528 | 19 | 45 | 3.2 | 0.0 | 0.00 | 0.00 | 0.00 | 10 | 1009.9 |
| 20260506133311 | 18 | 0 | 1.6 | 0.0 | 0.00 | 0.00 | 0.00 | 10 | 1010.4 |
| 20260506132944 | 18 | 0 | 1.6 | 0.0 | 0.00 | 0.00 | 0.00 | 10 | 1010.4 |
| 20260506132509 | 20 | 225 | 3.2 | 0.0 | 0.00 | 0.00 | 0.00 | 10 | 1010.8 |
| 20260506132400 | 20 | 270 | 1.6 | 0.0 | 0.00 | 0.00 | 0.00 | 10 | 1010.8 |
| 20260506132252 | 21 | 45 | 1.6 | 0.0 | 0.00 | 0.00 | 0.00 | 10 | 1010.8 |
| 20260506132143 | 21 | 270 | 1.6 | 0.0 | 0.00 | 0.00 | 0.00 | 10 | 1010.8 |
| 20260506132034 | 22 | 0 | 1.6 | 0.0 | 0.00 | 0.00 | 0.00 | 10 | 1010.3 |
| 20260506131925 | 21 | 315 | 1.6 | 0.0 | 0.00 | 0.00 | 0.00 | 10 | 1010.1 |
| 20260506131816 | 21 | 0 | 1.6 | 0.0 | 0.00 | 0.00 | 0.00 | 10 | 1009.8 |
| 20260506131708 | 21 | 315 | 3.2 | 0.0 | 0.00 | 0.00 | 0.00 | 10 | 1009.4 |
| 20260506131450 | 20 | 315 | 3.2 | 0.0 | 0.00 | 0.00 | 0.00 | 10 | 1009.1 |
| 20260506131341 | 20 | 0 | 1.6 | 0.0 | 0.00 | 0.00 | 0.00 | 10 | 1009.2 |
| 20260506131232 | 20 | 315 | 1.6 | 0.0 | 0.00 | 0.00 | 0.00 | 10 | 1009.0 |
| 20260506131124 | 19 | 0 | 3.2 | 0.0 | 0.00 | 0.00 | 0.00 | 10 | 1009.1 |
| 20260506130906 | 19 | 315 | 1.6 | 0.0 | 0.00 | 0.00 | 0.00 | 10 | 1008.8 |
| 20260506130757 | 18 | 315 | 4.8 | 0.0 | 0.00 | 0.00 | 0.00 | 10 | 1009.1 |
| 20260506130649 | 18 | 0 | 1.6 | 0.0 | 0.00 | 0.00 | 0.00 | 10 | 1009.1 |
| 20260506130213 | 18 | 0 | 1.6 | 0.0 | 0.00 | 0.00 | 0.00 | 10 | 1009.4 |
| 20260506125956 | 18 | 315 | 1.6 | 0.0 | 0.00 | 0.00 | 0.00 | 10 | 1009.8 |
| 20260506125848 | 18 | 315 | 1.6 | 0.0 | 0.00 | 0.00 | 0.00 | 10 | 1010.0 |
| 20260506125738 | 18 | 315 | 1.6 | 0.0 | 0.00 | 0.00 | 0.00 | 10 | 1010.1 |
| 20260506125629 | 18 | 270 | 1.6 | 0.0 | 0.00 | 0.00 | 0.00 | 10 | 1010.2 |
| 20260506125521 | 18 | 315 | 1.6 | 0.0 | 0.00 | 0.00 | 0.00 | 10 | 1010.3 |
| 20260506125412 | 20 | 0 | 1.6 | 0.0 | 0.00 | 0.00 | 0.00 | 10 | 1010.1 |
| 20260506124828 | 18 | 315 | 1.6 | 0.0 | 0.00 | 0.00 | 0.00 | 10 | 1009.5 |
| 20260506124719 | 18 | 315 | 1.6 | 0.0 | 0.00 | 0.00 | 0.00 | 10 | 1009.7 |
| 20260506124611 | 18 | 315 | 1.6 | 0.0 | 0.00 | 0.00 | 0.00 | 10 | 1009.7 |
| 20260506124353 | 18 | 315 | 3.2 | 0.0 | 0.00 | 0.00 | 0.00 | 10 | 1010.1 |
| 20260506124244 | 18 | 315 | 3.2 | 0.0 | 0.00 | 0.00 | 0.00 | 10 | 1010.4 |
| 20260506124136 | 19 | 315 | 1.6 | 0.0 | 0.00 | 0.00 | 0.00 | 10 | 1010.3 |
| 20260506124027 | 20 | 0 | 3.2 | 0.0 | 0.00 | 0.00 | 0.00 | 10 | 1010.0 |
| 20260506123809 | 19 | 315 | 3.2 | 0.0 | 0.00 | 0.00 | 0.00 | 10 | 1010.2 |
| 20260506123700 | 19 | 270 | 3.2 | 0.0 | 0.00 | 0.00 | 0.00 | 10 | 1010.3 |
| 20260506123443 | 18 | 0 | 3.2 | 0.0 | 0.00 | 0.00 | 0.00 | 10 | 1010.4 |
| 20260506123334 | 19 | 270 | 3.2 | 0.0 | 0.00 | 0.00 | 0.00 | 10 | 1010.4 |
| 20260506123225 | 20 | 315 | 1.6 | 0.0 | 0.00 | 0.00 | 0.00 | 10 | 1010.3 |
| 20260506123116 | 21 | 315 | 1.6 | 0.0 | 0.00 | 0.00 | 0.00 | 10 | 1010.1 |
| 20260506123008 | 20 | 315 | 1.6 | 0.0 | 0.00 | 0.00 | 0.00 | 10 | 1010.4 |
| 20260506122859 | 20 | 315 | 4.8 | 0.0 | 0.00 | 0.00 | 0.00 | 10 | 1010.5 |
| 20260506122750 | 20 | 270 | 3.2 | 0.0 | 0.00 | 0.00 | 0.00 | 10 | 1010.9 |
| 20260506122315 | 20 | 225 | 3.2 | 0.0 | 0.00 | 0.00 | 0.00 | 10 | 1011.2 |
| 20260506122206 | 20 | 90 | 1.6 | 0.0 | 0.00 | 0.00 | 0.00 | 10 | 1011.2 |
| 20260506121948 | 19 | 225 | 1.6 | 0.0 | 0.00 | 0.00 | 0.00 | 10 | 1011.3 |
| 20260506121839 | 19 | 180 | 1.6 | 0.0 | 0.00 | 0.00 | 0.00 | 10 | 1011.2 |
| 20260506121513 | 20 | 180 | 1.6 | 0.0 | 0.00 | 0.00 | 0.00 | 10 | 1010.4 |
| 20260506121404 | 20 | 225 | 1.6 | 0.0 | 0.00 | 0.00 | 0.00 | 10 | 1010.2 |
| 20260506121255 | 20 | 180 | 3.2 | 0.0 | 0.00 | 0.00 | 0.00 | 10 | 1009.9 |
| 20260506121147 | 20 | 270 | 3.2 | 0.0 | 0.00 | 0.00 | 0.00 | 10 | 1009.6 |
| 20260506121038 | 20 | 180 | 1.6 | 0.0 | 0.00 | 0.00 | 0.00 | 10 | 1008.9 |
| 20260506120929 | 20 | 225 | 1.6 | 0.0 | 0.00 | 0.00 | 0.00 | 10 | 1008.9 |
| 20260506120820 | 19 | 270 | 1.6 | 0.0 | 0.00 | 0.00 | 0.00 | 10 | 1008.9 |
| 20260506120711 | 18 | 225 | 1.6 | 0.0 | 0.00 | 0.00 | 0.00 | 10 | 1008.8 |
| 20260506120603 | 18 | 270 | 1.6 | 0.0 | 0.00 | 0.00 | 0.00 | 10 | 1009.0 |
| 20260506120454 | 17 | 270 | 3.2 | 0.0 | 0.00 | 0.00 | 0.00 | 10 | 1009.0 |
| 20260506120345 | 17 | 225 | 3.2 | 0.0 | 0.00 | 0.00 | 0.00 | 10 | 1009.0 |
| 20260506120236 | 17 | 270 | 3.2 | 0.0 | 0.00 | 0.00 | 0.00 | 10 | 1009.1 |
| 20260506120127 | 17 | 315 | 1.6 | 0.0 | 0.00 | 0.00 | 0.00 | 10 | 1008.9 |
| 20260506120019 | 17 | 225 | 1.6 | 0.0 | 0.00 | 0.00 | 0.00 | 10 | 1009.0 |
| 20260506115801 | 18 | 270 | 3.2 | 0.0 | 0.00 | 0.00 | 0.00 | 10 | 1009.3 |
| 20260506115652 | 18 | 225 | 3.2 | 0.0 | 0.00 | 0.00 | 0.00 | 10 | 1009.4 |
| 20260506115543 | 18 | 315 | 1.6 | 0.0 | 0.00 | 0.00 | 0.00 | 10 | 1009.5 |
| 20260506115435 | 18 | 225 | 3.2 | 0.0 | 0.00 | 0.00 | 0.00 | 10 | 1009.6 |
| 20260506115326 | 18 | 270 | 6.4 | 0.0 | 0.00 | 0.00 | 0.00 | 10 | 1010.0 |
| 20260506115217 | 18 | 315 | 1.6 | 0.0 | 0.00 | 0.00 | 0.00 | 10 | 1009.9 |
| 20260506115108 | 19 | 180 | 1.6 | 0.0 | 0.00 | 0.00 | 0.00 | 10 | 1009.7 |
| 20260506114633 | 19 | 270 | 3.2 | 0.0 | 0.00 | 0.00 | 0.00 | 10 | 1008.8 |
| 20260506114524 | 19 | 225 | 4.8 | 0.0 | 0.00 | 0.00 | 0.00 | 10 | 1008.7 |
| 20260506114416 | 19 | 225 | 1.6 | 0.0 | 0.00 | 0.00 | 0.00 | 10 | 1008.5 |
| 20260506114158 | 18 | 270 | 3.2 | 0.0 | 0.00 | 0.00 | 0.00 | 10 | 1008.5 |
| 20260506114049 | 18 | 270 | 6.4 | 0.0 | 0.00 | 0.00 | 0.00 | 10 | 1008.4 |
| 20260506113940 | 18 | 270 | 3.2 | 0.0 | 0.00 | 0.00 | 0.00 | 10 | 1008.0 |
| 20260506113832 | 18 | 315 | 3.2 | 0.0 | 0.00 | 0.00 | 0.00 | 10 | 1008.0 |
| 20260506113723 | 18 | 270 | 1.6 | 0.0 | 0.00 | 0.00 | 0.00 | 10 | 1007.9 |
| 20260506113614 | 18 | 225 | 3.2 | 0.0 | 0.00 | 0.00 | 0.00 | 10 | 1007.6 |
| 20260506113505 | 19 | 225 | 1.6 | 0.0 | 0.00 | 0.00 | 0.00 | 10 | 1006.9 |
| 20260506113356 | 19 | 225 | 3.2 | 0.0 | 0.00 | 0.00 | 0.00 | 10 | 1006.7 |
| 20260506113248 | 19 | 315 | 3.2 | 0.0 | 0.00 | 0.00 | 0.00 | 10 | 1006.8 |
| 20260506113139 | 18 | 315 | 1.6 | 0.0 | 0.00 | 0.00 | 0.00 | 10 | 1006.9 |
| 20260506113030 | 18 | 270 | 4.8 | 0.0 | 0.00 | 0.00 | 0.00 | 10 | 1007.1 |
| 20260506112812 | 17 | 270 | 3.2 | 0.0 | 0.00 | 0.00 | 0.00 | 10 | 1007.6 |
| 20260506112704 | 17 | 225 | 1.6 | 0.0 | 0.00 | 0.00 | 0.00 | 10 | 1007.7 |
| 20260506112555 | 17 | 225 | 3.2 | 0.0 | 0.00 | 0.00 | 0.00 | 10 | 1008.0 |
| 20260506112337 | 18 | 225 | 1.6 | 0.0 | 0.00 | 0.00 | 0.00 | 10 | 1008.1 |
| 20260506112228 | 18 | 180 | 4.8 | 0.0 | 0.00 | 0.00 | 0.00 | 10 | 1008.1 |
| 20260506112120 | 18 | 270 | 6.4 | 0.0 | 0.00 | 0.00 | 0.00 | 10 | 1008.5 |
| 20260506112011 | 19 | 225 | 4.8 | 0.0 | 0.00 | 0.00 | 0.00 | 10 | 1260.8 |
| 20260506111902 | 21 | 315 | 1.6 | 0.0 | 0.00 | 0.00 | 0.00 | 10 | 1007.7 |
| 20260506111644 | 21 | 180 | 1.6 | 0.0 | 0.00 | 0.00 | 0.00 | 10 | 1006.8 |
| 20260506111536 | 20 | 180 | 3.2 | 0.0 | 0.00 | 0.00 | 0.00 | 10 | 1006.4 |
| 20260506111318 | 19 | 270 | 1.6 | 0.0 | 0.00 | 0.00 | 0.00 | 10 | 1006.6 |
| 20260506111100 | 20 | 270 | 3.2 | 0.0 | 0.00 | 0.00 | 0.00 | 10 | 1006.0 |
| 20260506110952 | 20 | 270 | 3.2 | 0.0 | 0.00 | 0.00 | 0.00 | 10 | 1005.7 |
| 20260506110517 | 18 | 225 | 3.2 | 0.0 | 0.00 | 0.00 | 0.00 | 10 | 1005.2 |
| 20260506110408 | 18 | 270 | 1.6 | 0.0 | 0.00 | 0.00 | 0.00 | 10 | 1005.6 |
| 20260506110150 | 18 | 270 | 3.2 | 0.0 | 0.00 | 0.00 | 0.00 | 10 | 1005.4 |
| 20260506105933 | 18 | 270 | 3.2 | 0.0 | 0.00 | 0.00 | 0.00 | 10 | 1004.9 |
| 20260506105824 | 18 | 270 | 4.8 | 0.0 | 0.00 | 0.00 | 0.00 | 10 | 1004.8 |
| 20260506105716 | 18 | 225 | 3.2 | 0.0 | 0.00 | 0.00 | 0.00 | 10 | 1004.6 |
| 20260506105606 | 18 | 225 | 1.6 | 0.0 | 0.00 | 0.00 | 0.00 | 10 | 1004.3 |
| 20260506105457 | 18 | 45 | 1.6 | 0.0 | 0.00 | 0.00 | 0.00 | 10 | 1004.1 |
| 20260506105349 | 17 | 45 | 4.8 | 0.0 | 0.00 | 0.00 | 0.00 | 10 | 1004.2 |
| 20260506105240 | 17 | 45 | 3.2 | 0.0 | 0.00 | 0.00 | 0.00 | 10 | 1003.9 |
| 20260506105131 | 17 | 270 | 4.8 | 0.0 | 0.00 | 0.00 | 0.00 | 10 | 1003.7 |
| 20260506105022 | 18 | 270 | 3.2 | 0.0 | 0.00 | 0.00 | 0.00 | 10 | 1003.2 |
| 20260506104914 | 18 | 270 | 1.6 | 0.0 | 0.00 | 0.00 | 0.00 | 10 | 1003.0 |
| 20260506104656 | 18 | 180 | 3.2 | 0.0 | 0.00 | 0.00 | 0.00 | 10 | 1002.3 |
| 20260506104112 | 17 | 180 | 1.6 | 0.0 | 0.00 | 0.00 | 0.00 | 10 | 1001.0 |
| 20260506104004 | 17 | 45 | 3.2 | 0.0 | 0.00 | 0.00 | 0.00 | 10 | 1001.2 |
| 20260506103855 | 16 | 225 | 1.6 | 0.0 | 0.00 | 0.00 | 0.00 | 10 | 1001.4 |
| 20260506103746 | 16 | 270 | 1.6 | 0.0 | 0.00 | 0.00 | 0.00 | 10 | 1001.5 |
| 20260506103637 | 16 | 225 | 1.6 | 0.0 | 0.00 | 0.00 | 0.00 | 10 | 1001.9 |
| 20260506103311 | 16 | 270 | 1.6 | 0.0 | 0.00 | 0.00 | 0.00 | 10 | 1002.4 |
| 20260506103202 | 16 | 270 | 1.6 | 0.0 | 0.00 | 0.00 | 0.00 | 10 | 1002.5 |
| 20260506102944 | 17 | 315 | 1.6 | 0.0 | 0.00 | 0.00 | 0.00 | 10 | 1002.0 |
| 20260506102618 | 18 | 180 | 1.6 | 0.0 | 0.00 | 0.00 | 0.00 | 10 | 1001.0 |
| 20260506102509 | 18 | 180 | 1.6 | 0.0 | 0.00 | 0.00 | 0.00 | 10 | 1000.9 |
| 20260506102400 | 18 | 180 | 1.6 | 0.0 | 0.00 | 0.00 | 0.00 | 10 | 1000.6 |
| 20260506102252 | 18 | 225 | 1.6 | 0.0 | 0.00 | 0.00 | 0.00 | 10 | 1000.3 |
| 20260506102035 | 18 | 225 | 1.6 | 0.0 | 0.00 | 0.00 | 0.00 | 10 | 999.0 |
| 20260506101817 | 17 | 270 | 1.6 | 0.0 | 0.00 | 0.00 | 0.00 | 10 | 999.6 |
| 20260506101559 | 16 | 270 | 1.6 | 0.0 | 0.00 | 0.00 | 0.00 | 10 | 1000.6 |
| 20260506100906 | 16 | 225 | 1.6 | 0.0 | 0.00 | 0.00 | 0.00 | 10 | 1001.2 |
| 20260506100540 | 16 | 180 | 1.6 | 0.0 | 0.00 | 0.00 | 0.00 | 10 | 1001.5 |
| 20260506100323 | 17 | 225 | 3.2 | 0.0 | 0.00 | 0.00 | 0.00 | 10 | 1001.5 |
| 20260506094937 | 17 | 225 | 1.6 | 0.0 | 0.00 | 0.00 | 0.00 | 10 | 1000.5 |
| 20260506094829 | 17 | 180 | 3.2 | 0.0 | 0.00 | 0.00 | 0.00 | 10 | 1000.2 |
| 20260506094720 | 17 | 180 | 1.6 | 0.0 | 0.00 | 0.00 | 0.00 | 10 | 1000.2 |
| 20260506094611 | 17 | 135 | 1.6 | 0.0 | 0.00 | 0.00 | 0.00 | 10 | 1000.2 |
| 20260506094136 | 17 | 315 | 1.6 | 0.0 | 0.00 | 0.00 | 0.00 | 10 | 999.8 |
| 20260506094027 | 16 | 315 | 1.6 | 0.0 | 0.00 | 0.00 | 0.00 | 10 | 1000.0 |
| 20260506093552 | 16 | 225 | 1.6 | 0.0 | 0.00 | 0.00 | 0.00 | 10 | 999.9 |
| 20260506093008 | 16 | 45 | 1.6 | 0.0 | 0.00 | 0.00 | 0.00 | 10 | 999.5 |
| 20260506092642 | 15 | 225 | 1.6 | 0.0 | 0.00 | 0.00 | 0.00 | 10 | 999.7 |
| 20260506092424 | 16 | 315 | 3.2 | 0.0 | 0.00 | 0.00 | 0.00 | 10 | 999.6 |
| 20260506092316 | 16 | 315 | 1.6 | 0.0 | 0.00 | 0.00 | 0.00 | 10 | 999.5 |
| 20260506092207 | 16 | 90 | 3.2 | 0.0 | 0.00 | 0.00 | 0.00 | 10 | 999.1 |
| 20260506091732 | 16 | 315 | 1.6 | 0.0 | 0.00 | 0.00 | 0.00 | 10 | 998.5 |
| 20260506091405 | 16 | 315 | 1.6 | 0.0 | 0.00 | 0.00 | 0.00 | 10 | 998.5 |
| 20260506091257 | 16 | 315 | 3.2 | 0.0 | 0.00 | 0.00 | 0.00 | 10 | 998.3 |
| 20260506090930 | 16 | 315 | 1.6 | 0.0 | 0.00 | 0.00 | 0.00 | 10 | 997.6 |
| 20260506090713 | 16 | 315 | 1.6 | 0.0 | 0.00 | 0.00 | 0.00 | 10 | 997.0 |
| 20260506090604 | 16 | 315 | 1.6 | 0.0 | 0.00 | 0.00 | 0.00 | 10 | 997.2 |
| 20260506090455 | 15 | 270 | 1.6 | 0.0 | 0.00 | 0.00 | 0.00 | 10 | 997.7 |
| 20260506090238 | 15 | 315 | 1.6 | 0.0 | 0.00 | 0.00 | 0.00 | 10 | 997.8 |
| 20260506090129 | 15 | 270 | 1.6 | 0.0 | 0.00 | 0.00 | 0.00 | 10 | 998.0 |
| 20260506090020 | 15 | 270 | 3.2 | 0.0 | 0.00 | 0.00 | 0.00 | 10 | 998.1 |
| 20260506085912 | 15 | 315 | 3.2 | 0.0 | 0.00 | 0.00 | 0.00 | 10 | 998.0 |
| 20260506085803 | 15 | 315 | 1.6 | 0.0 | 0.00 | 0.00 | 0.00 | 10 | 998.1 |
| 20260506085545 | 15 | 315 | 1.6 | 0.0 | 0.00 | 0.00 | 0.00 | 10 | 997.9 |
| 20260506085436 | 15 | 315 | 1.6 | 0.0 | 0.00 | 0.00 | 0.00 | 10 | 997.9 |
| 20260506085110 | 15 | 315 | 1.6 | 0.0 | 0.00 | 0.00 | 0.00 | 10 | 997.9 |
| 20260506084853 | 15 | 0 | 1.6 | 0.0 | 0.00 | 0.00 | 0.00 | 10 | 997.9 |
| 20260506084744 | 15 | 315 | 1.6 | 0.0 | 0.00 | 0.00 | 0.00 | 10 | 998.0 |
| 20260506084527 | 15 | 270 | 1.6 | 0.0 | 0.00 | 0.00 | 0.00 | 10 | 997.9 |
| 20260506084309 | 15 | 315 | 1.6 | 0.0 | 0.00 | 0.00 | 0.00 | 10 | 997.8 |
| 20260506084200 | 15 | 0 | 1.6 | 0.0 | 0.00 | 0.00 | 0.00 | 10 | 997.8 |
| 20260506084052 | 15 | 270 | 1.6 | 0.0 | 0.00 | 0.00 | 0.00 | 10 | 997.7 |
| 20260506083943 | 15 | 270 | 1.6 | 0.0 | 0.00 | 0.00 | 0.00 | 10 | 997.5 |
| 20260506083834 | 15 | 225 | 1.6 | 0.0 | 0.00 | 0.00 | 0.00 | 10 | 997.4 |
| 20260506083725 | 16 | 315 | 1.6 | 0.0 | 0.00 | 0.00 | 0.00 | 10 | 997.2 |
| 20260506083617 | 16 | 225 | 1.6 | 0.0 | 0.00 | 0.00 | 0.00 | 10 | 996.9 |
| 20260506083508 | 15 | 270 | 1.6 | 0.0 | 0.00 | 0.00 | 0.00 | 10 | 997.2 |
| 20260506083359 | 15 | 270 | 3.2 | 0.0 | 0.00 | 0.00 | 0.00 | 10 | 997.1 |
| 20260506083141 | 15 | 225 | 1.6 | 0.0 | 0.00 | 0.00 | 0.00 | 10 | 996.9 |
| 20260506083033 | 15 | 0 | 1.6 | 0.0 | 0.00 | 0.00 | 0.00 | 10 | 997.2 |
| 20260506082558 | 15 | 270 | 1.6 | 0.0 | 0.00 | 0.00 | 0.00 | 10 | 997.0 |
| 20260506082449 | 15 | 315 | 1.6 | 0.0 | 0.00 | 0.00 | 0.00 | 10 | 997.1 |
| 20260506082340 | 15 | 270 | 3.2 | 0.0 | 0.00 | 0.00 | 0.00 | 10 | 996.9 |
| 20260506082231 | 15 | 315 | 1.6 | 0.0 | 0.00 | 0.00 | 0.00 | 10 | 996.9 |
| 20260506082123 | 15 | 315 | 1.6 | 0.0 | 0.00 | 0.00 | 0.00 | 10 | 997.0 |
| 20260506082014 | 15 | 315 | 1.6 | 0.0 | 0.00 | 0.00 | 0.00 | 10 | 997.0 |
| 20260506081756 | 15 | 315 | 1.6 | 0.0 | 0.00 | 0.00 | 0.00 | 10 | 997.0 |
| 20260506081647 | 14 | 315 | 1.6 | 0.0 | 0.00 | 0.00 | 0.00 | 10 | 997.2 |
| 20260506081539 | 14 | 315 | 1.6 | 0.0 | 0.00 | 0.00 | 0.00 | 10 | 997.2 |
| 20260506081430 | 14 | 315 | 1.6 | 0.0 | 0.00 | 0.00 | 0.00 | 10 | 997.1 |
| 20260506081321 | 15 | 270 | 3.2 | 0.0 | 0.00 | 0.00 | 0.00 | 10 | 997.1 |
| 20260506081212 | 14 | 270 | 3.2 | 0.0 | 0.00 | 0.00 | 0.00 | 10 | 997.1 |
| 20260506081103 | 15 | 315 | 1.6 | 0.0 | 0.00 | 0.00 | 0.00 | 10 | 997.0 |
| 20260506080955 | 15 | 0 | 3.2 | 0.0 | 0.00 | 0.00 | 0.00 | 10 | 996.9 |
| 20260506080628 | 15 | 270 | 1.6 | 0.0 | 0.00 | 0.00 | 0.00 | 10 | 996.9 |
| 20260506080519 | 15 | 315 | 1.6 | 0.0 | 0.00 | 0.00 | 0.00 | 10 | 996.4 |
| 20260506080302 | 16 | 315 | 1.6 | 0.0 | 0.00 | 0.00 | 0.00 | 10 | 996.1 |
| 20260506073423 | 17 | 270 | 1.6 | 0.0 | 0.00 | 0.00 | 0.00 | 10 | 995.2 |
| 20260506073205 | 18 | 0 | 1.6 | 0.0 | 0.00 | 0.00 | 0.00 | 10 | 995.4 |
| 20260506072730 | 18 | 315 | 0.0 | 0.0 | 0.00 | 0.00 | 0.00 | 10 | 996.0 |
| 20260506071711 | 16 | 90 | 0.0 | 0.0 | 0.00 | 0.00 | 0.00 | 10 | 998.1 |
| 20260506071453 | 15 | 180 | 0.0 | 0.0 | 0.00 | 0.00 | 0.00 | 10 | 998.5 |
| 20260506071236 | 15 | 0 | 0.0 | 0.0 | 0.00 | 0.00 | 0.00 | 10 | 998.7 |
| 20260506071018 | 16 | 315 | 0.0 | 0.0 | 0.00 | 0.00 | 0.00 | 10 | 998.8 |
| 20260506070910 | 16 | 45 | 0.0 | 0.0 | 0.00 | 0.00 | 0.00 | 10 | 999.0 |
| 20260506070801 | 16 | 180 | 0.0 | 0.0 | 0.00 | 0.00 | 0.00 | 10 | 999.2 |
| 20260506070652 | 15 | 180 | 0.0 | 0.0 | 0.00 | 0.00 | 0.00 | 10 | 999.4 |
| 20260506070543 | 15 | 180 | 0.0 | 0.0 | 0.00 | 0.00 | 0.00 | 10 | 999.5 |
| 20260506070435 | 15 | 180 | 0.0 | 0.0 | 0.00 | 0.00 | 0.00 | 10 | 999.6 |
| 20260506070326 | 16 | 180 | 0.0 | 0.0 | 0.00 | 0.00 | 0.00 | 10 | 999.7 |
| 20260506062319 | 12 | 225 | 1.6 | 0.0 | 0.00 | 0.00 | 0.00 | 10 | 1002.4 |
| 20260506062101 | 12 | 180 | 1.6 | 0.0 | 0.00 | 0.00 | 0.00 | 10 | 1002.4 |
| 20260506061626 | 13 | 180 | 0.0 | 0.0 | 0.00 | 0.00 | 0.00 | 10 | 1002.4 |
| 20260506061300 | 12 | 180 | 0.0 | 0.0 | 0.00 | 0.00 | 0.00 | 10 | 1002.6 |
| 20260506060933 | 12 | 225 | 1.6 | 0.0 | 0.00 | 0.00 | 0.00 | 10 | 1002.8 |
| 20260506060825 | 11 | 270 | 1.6 | 0.0 | 0.00 | 0.00 | 0.00 | 10 | 1002.9 |
| 20260506050642 | 11 | 315 | 0.0 | 0.0 | 0.00 | 0.00 | 0.00 | 10 | 706.7 |
| 20260506050534 | 11 | 270 | 0.0 | 0.0 | 0.00 | 0.00 | 0.00 | 10 | 706.6 |
| 20260506045042 | 11 | 270 | 0.0 | 0.0 | 0.00 | 0.00 | 0.00 | 10 | 706.6 |
| 20260506044351 | 11 | 270 | 1.6 | 0.0 | 0.00 | 0.00 | 0.00 | 10 | 706.8 |
| 20260506044242 | 11 | 225 | 1.6 | 0.0 | 0.00 | 0.00 | 0.00 | 10 | 706.7 |
| 20260506044025 | 11 | 180 | 1.6 | 0.0 | 0.00 | 0.00 | 0.00 | 10 | 706.8 |
| 20260506043916 | 11 | 270 | 1.6 | 0.0 | 0.00 | 0.00 | 0.00 | 10 | 706.7 |
| 20260506043659 | 11 | 270 | 1.6 | 0.0 | 0.00 | 0.00 | 0.00 | 10 | 706.7 |
| 20260506043442 | 11 | 225 | 1.6 | 0.0 | 0.00 | 0.00 | 0.00 | 10 | 706.7 |
| 20260506043224 | 11 | 270 | 1.6 | 0.0 | 0.00 | 0.00 | 0.00 | 10 | 706.6 |
| 20260506043116 | 11 | 270 | 1.6 | 0.0 | 0.00 | 0.00 | 0.00 | 10 | 706.6 |
| 20260506043007 | 11 | 315 | 1.6 | 0.0 | 0.00 | 0.00 | 0.00 | 10 | 706.6 |
| 20260506042533 | 11 | 270 | 1.6 | 0.0 | 0.00 | 0.00 | 0.00 | 10 | 706.7 |
| 20260506041950 | 11 | 270 | 1.6 | 0.0 | 0.00 | 0.00 | 0.00 | 10 | 706.5 |
| 20260506041841 | 11 | 225 | 1.6 | 0.0 | 0.00 | 0.00 | 0.00 | 10 | 706.4 |
| 20260506041733 | 11 | 270 | 1.6 | 0.0 | 0.00 | 0.00 | 0.00 | 10 | 706.5 |
| 20260506041515 | 11 | 45 | 1.6 | 0.0 | 0.00 | 0.00 | 0.00 | 10 | 706.5 |
| 20260506041407 | 11 | 45 | 1.6 | 0.0 | 0.00 | 0.00 | 0.00 | 10 | 706.4 |
| 20260506041258 | 11 | 45 | 1.6 | 0.0 | 0.00 | 0.00 | 0.00 | 10 | 706.4 |
| 20260506040932 | 11 | 270 | 1.6 | 0.0 | 0.00 | 0.00 | 0.00 | 10 | 706.4 |
| 20260506040607 | 11 | 270 | 1.6 | 0.0 | 0.00 | 0.00 | 0.00 | 10 | 706.4 |
| 20260506040458 | 11 | 225 | 1.6 | 0.0 | 0.00 | 0.00 | 0.00 | 10 | 706.3 |
| 20260506040349 | 11 | 270 | 3.2 | 0.0 | 0.00 | 0.00 | 0.00 | 10 | 706.4 |
| 20260506040241 | 11 | 270 | 1.6 | 0.0 | 0.00 | 0.00 | 0.00 | 10 | 706.4 |
| 20260506035915 | 11 | 225 | 1.6 | 0.0 | 0.00 | 0.00 | 0.00 | 10 | 706.3 |
| 20260506035549 | 11 | 225 | 1.6 | 0.0 | 0.00 | 0.00 | 0.00 | 10 | 706.4 |
| 20260506035223 | 11 | 225 | 1.6 | 0.0 | 0.00 | 0.00 | 0.00 | 10 | 706.4 |
| 20260506035115 | 11 | 225 | 1.6 | 0.0 | 0.00 | 0.00 | 0.00 | 10 | 706.3 |
| 20260506035006 | 11 | 225 | 1.6 | 0.0 | 0.00 | 0.00 | 0.00 | 10 | 706.3 |
| 20260506034857 | 11 | 270 | 1.6 | 0.0 | 0.00 | 0.00 | 0.00 | 10 | 706.4 |
| 20260506034640 | 11 | 225 | 1.6 | 0.0 | 0.00 | 0.00 | 0.00 | 10 | 706.4 |
| 20260506034206 | 11 | 270 | 1.6 | 0.0 | 0.00 | 0.00 | 0.00 | 10 | 706.4 |
| 20260506034057 | 11 | 270 | 1.6 | 0.0 | 0.00 | 0.00 | 0.00 | 10 | 706.4 |
| 20260506033949 | 11 | 270 | 1.6 | 0.0 | 0.00 | 0.00 | 0.00 | 10 | 706.4 |
| 20260506033840 | 11 | 45 | 1.6 | 0.0 | 0.00 | 0.00 | 0.00 | 10 | 706.4 |
| 20260506033731 | 11 | 270 | 1.6 | 0.0 | 0.00 | 0.00 | 0.00 | 10 | 706.4 |
| 20260506033514 | 11 | 270 | 3.2 | 0.0 | 0.00 | 0.00 | 0.00 | 10 | 706.4 |
| 20260506033405 | 11 | 45 | 1.6 | 0.0 | 0.00 | 0.00 | 0.00 | 10 | 706.5 |
| 20260506033148 | 11 | 180 | 1.6 | 0.0 | 0.00 | 0.00 | 0.00 | 10 | 706.5 |
| 20260506033040 | 11 | 225 | 1.6 | 0.0 | 0.00 | 0.00 | 0.00 | 10 | 706.5 |
| 20260506032714 | 11 | 315 | 1.6 | 0.0 | 0.00 | 0.00 | 0.00 | 10 | 706.6 |
| 20260506032605 | 11 | 270 | 1.6 | 0.0 | 0.00 | 0.00 | 0.00 | 10 | 706.6 |
| 20260506032022 | 11 | 270 | 1.6 | 0.0 | 0.00 | 0.00 | 0.00 | 10 | 706.6 |
| 20260506031548 | 11 | 225 | 0.0 | 0.0 | 0.00 | 0.00 | 0.00 | 10 | 706.5 |
| 20260506031439 | 11 | 270 | 0.0 | 0.0 | 0.00 | 0.00 | 0.00 | 10 | 706.5 |
| 20260506031331 | 11 | 270 | 0.0 | 0.0 | 0.00 | 0.00 | 0.00 | 10 | 706.5 |
| 20260506031222 | 11 | 270 | 0.0 | 0.0 | 0.00 | 0.00 | 0.00 | 10 | 706.5 |
| 20260506030530 | 11 | 225 | 1.6 | 0.0 | 0.00 | 0.00 | 0.00 | 10 | 706.5 |
| 20260506025947 | 11 | 315 | 1.6 | 0.0 | 0.00 | 0.00 | 0.00 | 10 | 706.4 |
| 20260506025839 | 11 | 270 | 1.6 | 0.0 | 0.00 | 0.00 | 0.00 | 10 | 706.4 |
| 20260506025513 | 11 | 225 | 1.6 | 0.0 | 0.00 | 0.00 | 0.00 | 10 | 706.4 |
| 20260506025404 | 11 | 270 | 1.6 | 0.0 | 0.00 | 0.00 | 0.00 | 10 | 706.3 |
| 20260506025147 | 11 | 225 | 0.0 | 0.0 | 0.00 | 0.00 | 0.00 | 10 | 706.2 |
| 20260506024930 | 11 | 270 | 0.0 | 0.0 | 0.00 | 0.00 | 0.00 | 10 | 706.2 |
| 20260506024713 | 11 | 225 | 0.0 | 0.0 | 0.00 | 0.00 | 0.00 | 10 | 706.2 |
| 20260506024604 | 11 | 180 | 0.0 | 0.0 | 0.00 | 0.00 | 0.00 | 10 | 706.2 |
| 20260506023804 | 11 | 180 | 0.0 | 0.0 | 0.00 | 0.00 | 0.00 | 10 | 706.1 |
| 20260506023438 | 11 | 225 | 1.6 | 0.0 | 0.00 | 0.00 | 0.00 | 10 | 706.1 |
| 20260506022855 | 11 | 315 | 0.0 | 0.0 | 0.00 | 0.00 | 0.00 | 10 | 706.0 |
| 20260506022638 | 11 | 315 | 1.6 | 0.0 | 0.00 | 0.00 | 0.00 | 10 | 706.0 |
| 20260506022421 | 11 | 315 | 1.6 | 0.0 | 0.00 | 0.00 | 0.00 | 10 | 706.1 |
| 20260506021946 | 11 | 0 | 0.0 | 0.0 | 0.00 | 0.00 | 0.00 | 10 | 706.1 |
| 20260506021838 | 11 | 315 | 1.6 | 0.0 | 0.00 | 0.00 | 0.00 | 10 | 706.1 |
| 20260506021729 | 11 | 315 | 0.0 | 0.0 | 0.00 | 0.00 | 0.00 | 10 | 706.1 |
| 20260506021621 | 11 | 315 | 1.6 | 0.0 | 0.00 | 0.00 | 0.00 | 10 | 706.0 |
| 20260506021512 | 11 | 225 | 3.2 | 0.0 | 0.00 | 0.00 | 0.00 | 10 | 706.0 |
| 20260506021403 | 11 | 270 | 1.6 | 0.0 | 0.00 | 0.00 | 0.00 | 10 | 706.0 |
| 20260506021146 | 11 | 225 | 1.6 | 0.0 | 0.00 | 0.00 | 0.00 | 10 | 706.1 |
| 20260506021038 | 11 | 225 | 1.6 | 0.0 | 0.00 | 0.00 | 0.00 | 10 | 706.1 |
| 20260506020929 | 11 | 270 | 1.6 | 0.0 | 0.00 | 0.00 | 0.00 | 10 | 706.1 |
| 20260506020603 | 11 | 315 | 1.6 | 0.0 | 0.00 | 0.00 | 0.00 | 10 | 706.1 |
| 20260506020455 | 11 | 270 | 1.6 | 0.0 | 0.00 | 0.00 | 0.00 | 10 | 706.1 |
| 20260506020346 | 11 | 270 | 1.6 | 0.0 | 0.00 | 0.00 | 0.00 | 10 | 706.1 |
| 20260506020129 | 11 | 270 | 1.6 | 0.0 | 0.00 | 0.00 | 0.00 | 10 | 706.1 |
| 20260506020020 | 11 | 270 | 3.2 | 0.0 | 0.00 | 0.00 | 0.00 | 10 | 706.1 |
| 20260506015654 | 11 | 270 | 1.6 | 0.0 | 0.00 | 0.00 | 0.00 | 10 | 706.2 |
| 20260506015437 | 11 | 270 | 3.2 | 0.0 | 0.00 | 0.00 | 0.00 | 10 | 706.1 |
| 20260506015329 | 11 | 270 | 1.6 | 0.0 | 0.00 | 0.00 | 0.00 | 10 | 706.2 |
| 20260506015220 | 11 | 270 | 1.6 | 0.0 | 0.00 | 0.00 | 0.00 | 10 | 706.2 |
| 20260506015111 | 11 | 315 | 1.6 | 0.0 | 0.00 | 0.00 | 0.00 | 10 | 706.2 |
| 20260506015003 | 11 | 270 | 1.6 | 0.0 | 0.00 | 0.00 | 0.00 | 10 | 706.2 |
| 20260506014854 | 11 | 315 | 3.2 | 0.0 | 0.00 | 0.00 | 0.00 | 10 | 706.3 |
| 20260506014745 | 11 | 270 | 1.6 | 0.0 | 0.00 | 0.00 | 0.00 | 10 | 706.3 |
| 20260506014528 | 11 | 270 | 1.6 | 0.0 | 0.00 | 0.00 | 0.00 | 10 | 706.4 |
| 20260506014420 | 11 | 315 | 1.6 | 0.0 | 0.00 | 0.00 | 0.00 | 10 | 706.4 |
| 20260506014311 | 11 | 270 | 1.6 | 0.0 | 0.00 | 0.00 | 0.00 | 10 | 706.3 |
| 20260506014203 | 11 | 315 | 1.6 | 0.0 | 0.00 | 0.00 | 0.00 | 10 | 706.3 |
| 20260506014054 | 11 | 315 | 1.6 | 0.0 | 0.00 | 0.00 | 0.00 | 10 | 706.4 |
| 20260506013945 | 11 | 0 | 1.6 | 0.0 | 0.00 | 0.00 | 0.00 | 10 | 706.5 |
| 20260506013728 | 11 | 315 | 1.6 | 0.0 | 0.00 | 0.00 | 0.00 | 10 | 706.6 |
| 20260506013402 | 11 | 315 | 1.6 | 0.0 | 0.00 | 0.00 | 0.00 | 10 | 706.5 |
| 20260506013253 | 11 | 315 | 1.6 | 0.0 | 0.00 | 0.00 | 0.00 | 10 | 706.5 |
| 20260506013145 | 11 | 270 | 1.6 | 0.0 | 0.00 | 0.00 | 0.00 | 10 | 706.5 |
| 20260506013036 | 11 | 180 | 3.2 | 0.0 | 0.00 | 0.00 | 0.00 | 10 | 706.5 |
| 20260506012819 | 11 | 270 | 3.2 | 0.0 | 0.00 | 0.00 | 0.00 | 10 | 706.5 |
| 20260506012710 | 11 | 315 | 3.2 | 0.0 | 0.00 | 0.00 | 0.00 | 10 | 706.5 |
| 20260506012601 | 11 | 270 | 1.6 | 0.0 | 0.00 | 0.00 | 0.00 | 10 | 706.5 |
| 20260506012453 | 11 | 270 | 1.6 | 0.0 | 0.00 | 0.00 | 0.00 | 10 | 706.5 |
| 20260506012344 | 11 | 315 | 3.2 | 0.0 | 0.00 | 0.00 | 0.00 | 10 | 706.5 |
| 20260506012236 | 11 | 270 | 1.6 | 0.0 | 0.00 | 0.00 | 0.00 | 10 | 706.5 |
| 20260506012018 | 11 | 270 | 1.6 | 0.0 | 0.00 | 0.00 | 0.00 | 10 | 706.5 |
| 20260506011910 | 11 | 225 | 3.2 | 0.0 | 0.00 | 0.00 | 0.00 | 10 | 706.5 |
| 20260506011801 | 11 | 270 | 1.6 | 0.0 | 0.00 | 0.00 | 0.00 | 10 | 706.5 |
| 20260506011652 | 11 | 270 | 3.2 | 0.0 | 0.00 | 0.00 | 0.00 | 10 | 706.5 |
| 20260506011544 | 11 | 270 | 1.6 | 0.0 | 0.00 | 0.00 | 0.00 | 10 | 706.5 |
| 20260506011435 | 11 | 270 | 1.6 | 0.0 | 0.00 | 0.00 | 0.00 | 10 | 706.4 |
| 20260506011327 | 11 | 45 | 1.6 | 0.0 | 0.00 | 0.00 | 0.00 | 10 | 706.4 |
| 20260506011109 | 11 | 225 | 1.6 | 0.0 | 0.00 | 0.00 | 0.00 | 10 | 706.4 |
| 20260506011001 | 11 | 225 | 3.2 | 0.0 | 0.00 | 0.00 | 0.00 | 10 | 706.4 |
| 20260506010852 | 11 | 225 | 1.6 | 0.0 | 0.00 | 0.00 | 0.00 | 10 | 706.4 |
| 20260506010744 | 11 | 270 | 4.8 | 0.0 | 0.00 | 0.00 | 0.00 | 10 | 706.4 |
| 20260506010635 | 11 | 270 | 1.6 | 0.0 | 0.00 | 0.00 | 0.00 | 10 | 706.4 |
| 20260506010418 | 11 | 225 | 1.6 | 0.0 | 0.00 | 0.00 | 0.00 | 10 | 706.3 |
| 20260506010309 | 11 | 270 | 1.6 | 0.0 | 0.00 | 0.00 | 0.00 | 10 | 706.4 |
| 20260506010200 | 11 | 315 | 1.6 | 0.0 | 0.00 | 0.00 | 0.00 | 10 | 706.4 |
| 20260506010052 | 11 | 270 | 3.2 | 0.0 | 0.00 | 0.00 | 0.00 | 10 | 706.3 |
| 20260506005943 | 11 | 225 | 3.2 | 0.0 | 0.00 | 0.00 | 0.00 | 10 | 706.3 |
| 20260506005834 | 11 | 225 | 3.2 | 0.0 | 0.00 | 0.00 | 0.00 | 10 | 706.3 |
| 20260506005726 | 11 | 270 | 3.2 | 0.0 | 0.00 | 0.00 | 0.00 | 10 | 892.2 |
| 20260506005617 | 11 | 270 | 3.2 | 0.0 | 0.00 | 0.00 | 0.00 | 10 | 706.3 |
| 20260506005509 | 11 | 225 | 1.6 | 0.0 | 0.00 | 0.00 | 0.00 | 10 | 706.2 |
| 20260506005400 | 11 | 270 | 3.2 | 0.0 | 0.00 | 0.00 | 0.00 | 10 | 706.2 |
| 20260506005251 | 11 | 225 | 1.6 | 0.0 | 0.00 | 0.00 | 0.00 | 10 | 706.3 |
| 20260506005143 | 11 | 270 | 3.2 | 0.0 | 0.00 | 0.00 | 0.00 | 10 | 706.3 |
| 20260506005034 | 11 | 225 | 3.2 | 0.0 | 0.00 | 0.00 | 0.00 | 10 | 706.2 |
| 20260506004925 | 11 | 270 | 1.6 | 0.0 | 0.00 | 0.00 | 0.00 | 10 | 706.3 |
| 20260506004817 | 11 | 270 | 1.6 | 0.0 | 0.00 | 0.00 | 0.00 | 10 | 706.3 |
| 20260506004559 | 11 | 315 | 3.2 | 0.0 | 0.00 | 0.00 | 0.00 | 10 | 706.2 |
| 20260506004451 | 11 | 180 | 1.6 | 0.0 | 0.00 | 0.00 | 0.00 | 10 | 706.3 |
| 20260506004342 | 11 | 270 | 1.6 | 0.0 | 0.00 | 0.00 | 0.00 | 10 | 706.3 |
| 20260506004234 | 11 | 225 | 1.6 | 0.0 | 0.00 | 0.00 | 0.00 | 10 | 706.3 |
| 20260506004125 | 11 | 270 | 1.6 | 0.0 | 0.00 | 0.00 | 0.00 | 10 | 706.3 |
| 20260506004016 | 11 | 315 | 1.6 | 0.0 | 0.00 | 0.00 | 0.00 | 10 | 706.3 |
| 20260506003908 | 11 | 225 | 3.2 | 0.0 | 0.00 | 0.00 | 0.00 | 10 | 706.3 |
| 20260506003759 | 11 | 225 | 1.6 | 0.0 | 0.00 | 0.00 | 0.00 | 10 | 706.3 |
| 20260506003650 | 11 | 270 | 1.6 | 0.0 | 0.00 | 0.00 | 0.00 | 10 | 706.3 |
| 20260506003542 | 11 | 270 | 1.6 | 0.0 | 0.00 | 0.00 | 0.00 | 10 | 706.3 |
| 20260506003433 | 11 | 270 | 1.6 | 0.0 | 0.00 | 0.00 | 0.00 | 10 | 706.3 |
| 20260506003325 | 11 | 270 | 1.6 | 0.0 | 0.00 | 0.00 | 0.00 | 10 | 706.3 |
| 20260506003216 | 11 | 270 | 4.8 | 0.0 | 0.00 | 0.00 | 0.00 | 10 | 706.4 |
| 20260506002958 | 11 | 315 | 3.2 | 0.0 | 0.00 | 0.00 | 0.00 | 10 | 706.4 |
| 20260506002850 | 11 | 270 | 3.2 | 0.0 | 0.00 | 0.00 | 0.00 | 10 | 706.3 |
| 20260506002741 | 11 | 45 | 1.6 | 0.0 | 0.00 | 0.00 | 0.00 | 10 | 706.4 |
| 20260506002633 | 11 | 270 | 4.8 | 0.0 | 0.00 | 0.00 | 0.00 | 10 | 706.4 |
| 20260506002524 | 11 | 270 | 1.6 | 0.0 | 0.00 | 0.00 | 0.00 | 10 | 706.4 |
| 20260506002415 | 11 | 270 | 3.2 | 0.0 | 0.00 | 0.00 | 0.00 | 10 | 706.4 |
| 20260506002307 | 11 | 225 | 1.6 | 0.0 | 0.00 | 0.00 | 0.00 | 10 | 706.4 |
| 20260506002158 | 11 | 225 | 3.2 | 0.0 | 0.00 | 0.00 | 0.00 | 10 | 706.5 |
| 20260506001941 | 11 | 225 | 1.6 | 0.0 | 0.00 | 0.00 | 0.00 | 10 | 706.5 |
| 20260506001832 | 11 | 270 | 1.6 | 0.0 | 0.00 | 0.00 | 0.00 | 10 | 706.4 |
| 20260506001724 | 11 | 225 | 1.6 | 0.0 | 0.00 | 0.00 | 0.00 | 10 | 706.5 |
| 20260506001615 | 11 | 270 | 1.6 | 0.0 | 0.00 | 0.00 | 0.00 | 10 | 706.5 |
| 20260506001506 | 11 | 270 | 3.2 | 0.0 | 0.00 | 0.00 | 0.00 | 10 | 706.5 |
| 20260506001358 | 11 | 225 | 3.2 | 0.0 | 0.00 | 0.00 | 0.00 | 10 | 706.5 |
| 20260506001140 | 11 | 270 | 1.6 | 0.0 | 0.00 | 0.00 | 0.00 | 10 | 706.4 |
| 20260506001032 | 11 | 315 | 4.8 | 0.0 | 0.00 | 0.00 | 0.00 | 10 | 706.5 |
| 20260506000923 | 11 | 1.6 | 0.0 | 0.00 | 0.00 | 0.00 | 10 | 706.4 | |
| 20260506000815 | 11 | 270 | 3.2 | 0.0 | 0.00 | 0.00 | 0.00 | 10 | 706.4 |
| 20260506000706 | 11 | 315 | 6.4 | 0.0 | 0.00 | 0.00 | 0.00 | 10 | 706.5 |
| 20260506000557 | 11 | 270 | 6.4 | 0.0 | 0.00 | 0.00 | 0.00 | 10 | 706.4 |
| 20260506000449 | 11 | 225 | 3.2 | 0.0 | 0.00 | 0.00 | 0.00 | 10 | 706.4 |
| 20260506000232 | 11 | 270 | 3.2 | 0.0 | 0.00 | 0.00 | 0.00 | 10 | 706.4 |
| 20260506000123 | 11 | 270 | 3.2 | 0.0 | 0.00 | 0.00 | 0.00 | 10 | 706.4 |
| 20260506000014 | 11 | 270 | 3.2 | 0.0 | 0.00 | 0.00 | 0.00 | 10 | 706.4 |
| 20260505235906 | 11 | 270 | 4.8 | 0.0 | 0.00 | 0.00 | 0.00 | 10 | 706.5 |
| 20260505235757 | 11 | 315 | 3.2 | 0.0 | 0.00 | 0.00 | 0.00 | 10 | 706.5 |
| 20260505235648 | 11 | 315 | 3.2 | 0.0 | 0.00 | 0.00 | 0.00 | 10 | 706.5 |
| 20260505235540 | 11 | 3.2 | 0.0 | 0.00 | 0.00 | 0.00 | 10 | 706.4 | |
| 20260505235431 | 11 | 225 | 6.4 | 0.0 | 0.00 | 0.00 | 0.00 | 10 | 706.5 |
| 20260505235322 | 11 | 315 | 4.8 | 0.0 | 0.00 | 0.00 | 0.00 | 10 | 706.4 |
| 20260505235214 | 11 | 270 | 3.2 | 0.0 | 0.00 | 0.00 | 0.00 | 10 | 706.5 |
| 20260505235105 | 11 | 225 | 3.2 | 0.0 | 0.00 | 0.00 | 0.00 | 10 | 706.5 |
| 20260505234956 | 11 | 225 | 1.6 | 0.0 | 0.00 | 0.00 | 0.00 | 10 | 706.5 |
| 20260505234848 | 11 | 225 | 3.2 | 0.0 | 0.00 | 0.00 | 0.00 | 10 | 706.5 |
| 20260505234739 | 11 | 270 | 4.8 | 0.0 | 0.00 | 0.00 | 0.00 | 10 | 706.4 |
| 20260505234522 | 11 | 270 | 4.8 | 0.0 | 0.03 | 0.00 | 0.00 | 10 | 706.5 |
| 20260505234414 | 11 | 270 | 3.2 | 0.0 | 0.03 | 0.00 | 0.00 | 10 | 706.5 |
| 20260505234305 | 11 | 315 | 6.4 | 0.0 | 0.03 | 0.00 | 0.00 | 10 | 706.5 |
| 20260505234156 | 11 | 45 | 3.2 | 0.0 | 0.03 | 0.00 | 0.00 | 10 | 706.5 |
| 20260505234047 | 11 | 180 | 8.0 | 0.0 | 0.03 | 0.00 | 0.00 | 10 | 706.5 |
| 20260505233939 | 11 | 270 | 4.8 | 0.0 | 0.03 | 0.00 | 0.00 | 10 | 706.5 |
| 20260505233830 | 11 | 270 | 4.8 | 0.0 | 0.03 | 0.00 | 0.00 | 10 | 706.6 |
| 20260505233721 | 11 | 270 | 1.6 | 0.0 | 0.03 | 0.00 | 0.00 | 10 | 706.6 |
| 20260505233613 | 11 | 225 | 4.8 | 0.0 | 0.03 | 0.00 | 0.00 | 10 | 706.6 |
| 20260505233504 | 11 | 45 | 4.8 | 0.0 | 0.03 | 0.00 | 0.00 | 10 | 706.7 |
| 20260505233355 | 11 | 270 | 3.2 | 0.0 | 0.03 | 0.00 | 0.00 | 10 | 706.8 |
| 20260505233247 | 12 | 225 | 3.2 | 0.0 | 0.03 | 0.00 | 0.00 | 10 | 707.2 |
| 20260505233138 | 12 | 270 | 6.4 | 0.0 | 0.03 | 0.00 | 0.00 | 10 | 707.4 |
| 20260505233030 | 12 | 270 | 4.8 | 0.0 | 0.03 | 0.00 | 0.00 | 10 | 707.6 |
| 20260505232921 | 12 | 270 | 1.6 | 0.0 | 0.03 | 0.00 | 0.00 | 10 | 708.0 |
| 20260505232812 | 12 | 315 | 1.6 | 0.0 | 0.00 | 0.00 | 0.00 | 10 | 708.0 |
| 20260505232704 | 12 | 315 | 4.8 | 0.0 | 0.00 | 0.00 | 0.00 | 10 | 708.0 |
| 20260505232555 | 12 | 270 | 4.8 | 0.0 | 0.00 | 0.00 | 0.00 | 10 | 708.1 |
| 20260505232446 | 12 | 270 | 1.6 | 0.0 | 0.00 | 0.00 | 0.00 | 10 | 708.1 |
| 20260505232338 | 12 | 45 | 1.6 | 0.0 | 0.00 | 0.00 | 0.00 | 10 | 708.1 |
| 20260505232229 | 12 | 225 | 4.8 | 0.0 | 0.00 | 0.00 | 0.00 | 10 | 708.1 |
| 20260505232012 | 12 | 225 | 1.6 | 0.0 | 0.00 | 0.00 | 0.00 | 10 | 708.1 |
| 20260505231903 | 12 | 315 | 1.6 | 0.0 | 0.00 | 0.00 | 0.00 | 10 | 708.1 |
| 20260505231755 | 12 | 315 | 1.6 | 0.0 | 0.00 | 0.00 | 0.00 | 10 | 708.1 |
| 20260505231537 | 12 | 270 | 1.6 | 0.0 | 0.00 | 0.00 | 0.00 | 10 | 708.1 |
| 20260505231429 | 12 | 225 | 1.6 | 0.0 | 0.00 | 0.00 | 0.00 | 10 | 708.1 |
| 20260505231320 | 12 | 225 | 1.6 | 0.0 | 0.00 | 0.00 | 0.00 | 10 | 708.1 |
| 20260505230954 | 12 | 315 | 1.6 | 0.0 | 0.00 | 0.00 | 0.00 | 10 | 708.1 |
| 20260505230846 | 12 | 270 | 3.2 | 0.0 | 0.00 | 0.00 | 0.00 | 10 | 708.2 |
| 20260505230737 | 12 | 315 | 1.6 | 0.0 | 0.00 | 0.00 | 0.00 | 10 | 708.2 |
| 20260505230520 | 12 | 270 | 1.6 | 0.0 | 0.00 | 0.00 | 0.00 | 10 | 708.2 |
| 20260505230154 | 12 | 315 | 1.6 | 0.0 | 0.00 | 0.00 | 0.00 | 10 | 708.3 |
| 20260505225720 | 12 | 315 | 1.6 | 0.0 | 0.00 | 0.00 | 0.00 | 10 | 708.2 |
| 20260505225611 | 12 | 315 | 1.6 | 0.0 | 0.00 | 0.00 | 0.00 | 10 | 708.2 |
| 20260505225502 | 12 | 315 | 1.6 | 0.0 | 0.00 | 0.00 | 0.00 | 10 | 708.2 |
| 20260505225028 | 12 | 315 | 1.6 | 0.0 | 0.00 | 0.00 | 0.00 | 10 | 708.2 |
| 20260505224919 | 12 | 0 | 1.6 | 0.0 | 0.00 | 0.00 | 0.00 | 10 | 708.2 |
| 20260505224702 | 12 | 315 | 1.6 | 0.0 | 0.00 | 0.00 | 0.00 | 10 | 708.2 |
| 20260505224336 | 12 | 0 | 1.6 | 0.0 | 0.00 | 0.00 | 0.00 | 10 | 708.2 |
| 20260505223536 | 13 | 0 | 0.0 | 0.0 | 0.05 | 0.00 | 0.00 | 10 | 708.3 |
| 20260505223101 | 12 | 0 | 1.6 | 0.0 | 0.05 | 0.00 | 0.00 | 10 | 708.2 |
| 20260505222736 | 12 | 45 | 1.6 | 0.0 | 0.05 | 0.00 | 0.00 | 10 | 708.2 |
| 20260505222627 | 12 | 45 | 1.6 | 0.0 | 0.05 | 0.00 | 0.00 | 10 | 708.2 |
| 20260505222518 | 12 | 0 | 0.0 | 0.0 | 0.05 | 0.00 | 0.00 | 10 | 708.2 |
| 20260505222301 | 12 | 0 | 1.6 | 0.0 | 0.05 | 0.00 | 0.00 | 10 | 708.2 |
| 20260505222044 | 12 | 0 | 1.6 | 0.0 | 0.05 | 0.00 | 0.00 | 10 | 708.3 |
| 20260505221935 | 12 | 45 | 1.6 | 0.0 | 0.05 | 0.00 | 0.00 | 10 | 708.2 |
| 20260505221827 | 13 | 45 | 3.2 | 0.0 | 0.05 | 0.00 | 0.00 | 10 | 708.2 |
| 20260505221718 | 12 | 90 | 1.6 | 0.0 | 0.05 | 0.00 | 0.00 | 10 | 708.3 |
| 20260505221501 | 13 | 0 | 1.6 | 0.0 | 0.05 | 0.00 | 0.00 | 10 | 708.2 |
| 20260505220917 | 13 | 0 | 1.6 | 0.0 | 0.05 | 0.00 | 0.00 | 10 | 708.3 |
| 20260505220809 | 13 | 45 | 3.2 | 0.0 | 0.05 | 0.00 | 0.00 | 10 | 708.3 |
| 20260505220710 | 13 | 45 | 1.6 | 0.0 | 0.05 | 0.00 | 0.00 | 10 | 708.3 |
| 20260505220443 | 13 | 45 | 1.6 | 0.0 | 0.05 | 0.00 | 0.00 | 10 | 708.3 |
| 20260505220334 | 13 | 45 | 1.6 | 0.0 | 0.05 | 0.00 | 0.00 | 10 | 708.3 |
| 20260505220226 | 13 | 0 | 1.6 | 0.0 | 0.05 | 0.00 | 0.00 | 10 | 708.3 |
| 20260505220117 | 13 | 45 | 1.6 | 0.0 | 0.03 | 0.00 | 0.00 | 10 | 708.3 |
| 20260505220009 | 13 | 45 | 1.6 | 0.0 | 0.03 | 0.00 | 0.00 | 10 | 708.3 |
| 20260505215900 | 13 | 45 | 3.2 | 0.0 | 0.03 | 0.00 | 0.00 | 10 | 708.3 |
| 20260505215643 | 13 | 45 | 0.0 | 0.0 | 0.03 | 0.00 | 0.00 | 10 | 708.4 |
| 20260505215426 | 13 | 315 | 3.2 | 0.0 | 0.03 | 0.00 | 0.00 | 10 | 708.4 |
| 20260505215317 | 13 | 45 | 1.6 | 0.0 | 0.03 | 0.00 | 0.00 | 10 | 708.3 |
| 20260505215208 | 13 | 90 | 1.6 | 0.0 | 0.03 | 0.00 | 0.00 | 10 | 708.4 |
| 20260505214951 | 13 | 45 | 1.6 | 0.0 | 0.03 | 0.00 | 0.00 | 10 | 708.4 |
| 20260505214625 | 13 | 90 | 1.6 | 0.0 | 0.03 | 0.00 | 0.00 | 10 | 708.4 |
| 20260505214259 | 13 | 0 | 1.6 | 0.0 | 0.00 | 0.00 | 0.00 | 10 | 708.4 |
| 20260505213825 | 13 | 0 | 4.8 | 0.0 | 0.00 | 0.00 | 0.00 | 10 | 708.4 |
| 20260505213608 | 13 | 45 | 1.6 | 0.0 | 0.00 | 0.00 | 0.00 | 10 | 708.4 |
| 20260505213459 | 13 | 0 | 1.6 | 0.0 | 0.00 | 0.00 | 0.00 | 10 | 708.4 |
| 20260505213133 | 13 | 0 | 1.6 | 0.0 | 0.00 | 0.00 | 0.00 | 10 | 708.5 |
| 20260505213025 | 13 | 90 | 1.6 | 0.0 | 0.00 | 0.00 | 0.00 | 10 | 708.5 |
| 20260505212807 | 13 | 45 | 1.6 | 0.0 | 0.00 | 0.00 | 0.00 | 10 | 708.5 |
| 20260505212659 | 13 | 45 | 1.6 | 0.0 | 0.00 | 0.00 | 0.00 | 10 | 708.5 |
| 20260505212550 | 13 | 45 | 1.6 | 0.0 | 0.08 | 0.00 | 0.00 | 10 | 708.5 |
| 20260505212441 | 13 | 45 | 1.6 | 0.0 | 0.08 | 0.00 | 0.00 | 10 | 708.6 |
| 20260505212224 | 13 | 90 | 3.2 | 0.0 | 0.08 | 0.00 | 0.00 | 10 | 708.6 |
| 20260505212116 | 13 | 45 | 1.6 | 0.0 | 0.08 | 0.00 | 0.00 | 10 | 708.6 |
| 20260505212007 | 13 | 45 | 1.6 | 0.0 | 0.08 | 0.00 | 0.00 | 10 | 708.6 |
| 20260505211858 | 13 | 45 | 1.6 | 0.0 | 0.08 | 0.00 | 0.00 | 10 | 708.6 |
| 20260505211641 | 13 | 45 | 3.2 | 0.0 | 0.05 | 0.00 | 0.00 | 10 | 708.6 |
| 20260505211424 | 13 | 90 | 6.4 | 0.0 | 0.05 | 0.00 | 0.00 | 10 | 708.6 |
| 20260505211315 | 13 | 45 | 1.6 | 0.0 | 0.05 | 0.00 | 0.00 | 10 | 708.6 |
| 20260505211206 | 13 | 0 | 3.2 | 0.0 | 0.05 | 0.00 | 0.00 | 10 | 708.6 |
| 20260505210949 | 13 | 45 | 1.6 | 0.0 | 0.05 | 0.00 | 0.00 | 10 | 708.6 |
| 20260505210840 | 13 | 45 | 1.6 | 0.0 | 0.05 | 0.00 | 0.00 | 10 | 708.6 |
| 20260505210515 | 13 | 90 | 1.6 | 0.0 | 0.05 | 0.00 | 0.00 | 10 | 708.6 |
| 20260505210406 | 13 | 90 | 1.6 | 0.0 | 0.05 | 0.00 | 0.00 | 10 | 708.6 |
| 20260505210257 | 13 | 45 | 1.6 | 0.0 | 0.05 | 0.00 | 0.00 | 10 | 708.6 |
| 20260505210149 | 13 | 135 | 3.2 | 0.0 | 0.05 | 0.00 | 0.00 | 10 | 708.6 |
| 20260505210040 | 13 | 45 | 1.6 | 0.0 | 0.05 | 0.00 | 0.00 | 10 | 708.6 |
| 20260505205823 | 13 | 45 | 1.6 | 0.0 | 0.05 | 0.00 | 0.00 | 10 | 708.7 |
| 20260505205349 | 13 | 45 | 1.6 | 0.0 | 0.03 | 0.00 | 0.00 | 10 | 708.7 |
| 20260505205240 | 13 | 0 | 1.6 | 0.0 | 0.03 | 0.00 | 0.00 | 10 | 708.7 |
| 20260505204440 | 13 | 45 | 1.6 | 0.0 | 0.03 | 0.00 | 0.00 | 10 | 708.7 |
| 20260505204157 | 13 | 45 | 1.6 | 0.0 | 0.03 | 0.00 | 0.00 | 10 | 708.7 |
| 20260505203748 | 13 | 45 | 1.6 | 0.0 | 0.03 | 0.00 | 0.00 | 10 | 708.7 |
| 20260505203313 | 13 | 90 | 1.6 | 0.0 | 0.00 | 0.00 | 0.00 | 10 | 708.8 |
| 20260505202948 | 13 | 0 | 1.6 | 0.0 | 0.00 | 0.00 | 0.00 | 10 | 708.8 |
| 20260505202039 | 13 | 45 | 1.6 | 0.0 | 0.00 | 0.00 | 0.00 | 10 | 708.9 |
| 20260505201822 | 13 | 45 | 1.6 | 0.0 | 0.00 | 0.00 | 0.00 | 10 | 708.9 |
| 20260505201604 | 13 | 45 | 1.6 | 0.0 | 0.05 | 0.00 | 0.00 | 10 | 708.9 |
| 20260505201239 | 13 | 45 | 3.2 | 0.0 | 0.05 | 0.00 | 0.00 | 10 | 708.9 |
| 20260505201021 | 13 | 90 | 1.6 | 0.0 | 0.05 | 0.00 | 0.00 | 10 | 709.0 |
| 20260505200547 | 13 | 0 | 1.6 | 0.0 | 0.03 | 0.00 | 0.00 | 10 | 709.0 |
| 20260505200438 | 13 | 45 | 1.6 | 0.0 | 0.03 | 0.00 | 0.00 | 10 | 709.0 |
| 20260505200330 | 13 | 0 | 1.6 | 0.0 | 0.03 | 0.00 | 0.00 | 10 | 709.0 |
| 20260505200221 | 13 | 45 | 3.2 | 0.0 | 0.03 | 0.00 | 0.00 | 10 | 709.1 |
| 20260505200112 | 13 | 45 | 1.6 | 0.0 | 0.03 | 0.00 | 0.00 | 10 | 709.1 |
| 20260505200004 | 13 | 90 | 1.6 | 0.0 | 0.03 | 0.00 | 0.00 | 10 | 709.1 |
| 20260505195855 | 13 | 45 | 1.6 | 0.0 | 0.03 | 0.00 | 0.00 | 10 | 709.1 |
| 20260505195747 | 13 | 45 | 1.6 | 0.0 | 0.03 | 0.00 | 0.00 | 10 | 709.2 |
| 20260505195638 | 13 | 45 | 1.6 | 0.0 | 0.03 | 0.00 | 0.00 | 10 | 709.2 |
| 20260505195529 | 13 | 45 | 1.6 | 0.0 | 0.03 | 0.00 | 0.00 | 10 | 709.1 |
| 20260505195421 | 13 | 45 | 3.2 | 0.0 | 0.03 | 0.00 | 0.00 | 10 | 709.2 |
| 20260505195312 | 13 | 0 | 1.6 | 0.0 | 0.03 | 0.00 | 0.00 | 10 | 709.2 |
| 20260505195204 | 13 | 45 | 3.2 | 0.0 | 0.03 | 0.00 | 0.00 | 10 | 709.3 |
| 20260505194946 | 13 | 45 | 3.2 | 0.0 | 0.00 | 0.00 | 0.00 | 10 | 709.3 |
| 20260505194838 | 13 | 45 | 3.2 | 0.0 | 0.00 | 0.00 | 0.00 | 10 | 709.3 |
| 20260505194729 | 13 | 45 | 1.6 | 0.0 | 0.00 | 0.00 | 0.00 | 10 | 709.3 |
| 20260505194620 | 13 | 45 | 1.6 | 0.0 | 0.00 | 0.00 | 0.00 | 10 | 709.3 |
| 20260505194512 | 13 | 45 | 1.6 | 0.0 | 0.00 | 0.00 | 0.00 | 10 | 709.4 |
| 20260505194403 | 13 | 0 | 3.2 | 0.0 | 0.00 | 0.00 | 0.00 | 10 | 709.4 |
| 20260505194255 | 13 | 45 | 1.6 | 0.0 | 0.00 | 0.00 | 0.00 | 10 | 709.4 |
| 20260505194146 | 13 | 0 | 1.6 | 0.0 | 0.00 | 0.00 | 0.00 | 10 | 709.4 |
| 20260505194037 | 13 | 0 | 3.2 | 0.0 | 0.00 | 0.00 | 0.00 | 10 | 709.5 |
| 20260505193929 | 14 | 45 | 1.6 | 0.0 | 0.00 | 0.00 | 0.00 | 10 | 709.5 |
| 20260505193711 | 14 | 45 | 3.2 | 0.0 | 0.00 | 0.00 | 0.00 | 10 | 709.5 |
| 20260505193454 | 14 | 0 | 1.6 | 0.0 | 0.00 | 0.00 | 0.00 | 10 | 709.6 |
| 20260505193128 | 14 | 0 | 1.6 | 0.0 | 0.00 | 0.00 | 0.00 | 10 | 709.7 |
| 20260505192911 | 14 | 45 | 1.6 | 0.0 | 0.00 | 0.00 | 0.00 | 10 | 709.7 |
| 20260505192802 | 14 | 45 | 1.6 | 0.0 | 0.00 | 0.00 | 0.00 | 10 | 709.8 |
| 20260505192654 | 14 | 0 | 1.6 | 0.0 | 0.00 | 0.00 | 0.00 | 10 | 709.8 |
| 20260505192545 | 14 | 0 | 1.6 | 0.0 | 0.00 | 0.00 | 0.00 | 10 | 709.8 |
| 20260505192355 | 14 | 45 | 1.6 | 0.0 | 0.00 | 0.00 | 0.00 | 10 | 710.0 |
| 20260505192328 | 14 | 45 | 3.2 | 0.0 | 0.00 | 0.00 | 0.00 | 10 | 709.9 |
| 20260505192219 | 14 | 0 | 1.6 | 0.0 | 0.00 | 0.00 | 0.00 | 10 | 709.9 |
| 20260505191853 | 14 | 0 | 1.6 | 0.0 | 0.00 | 0.00 | 0.00 | 10 | 710.0 |
| 20260505191745 | 14 | 0 | 1.6 | 0.0 | 0.00 | 0.00 | 0.00 | 10 | 710.0 |
| 20260505185602 | 15 | 90 | 1.6 | 0.0 | 0.00 | 0.00 | 0.00 | 10 | 710.2 |
| 20260505185019 | 15 | 90 | 3.2 | 0.0 | 0.00 | 0.00 | 0.00 | 10 | 710.3 |
| 20260505184910 | 15 | 90 | 3.2 | 0.0 | 0.00 | 0.00 | 0.00 | 10 | 710.3 |
| 20260505184802 | 15 | 90 | 1.6 | 0.0 | 0.00 | 0.00 | 0.00 | 10 | 710.3 |
| 20260505184545 | 15 | 135 | 3.2 | 0.0 | 0.00 | 0.00 | 0.00 | 10 | 710.4 |
| 20260505184436 | 15 | 45 | 1.6 | 0.0 | 0.00 | 0.00 | 0.00 | 10 | 710.3 |
| 20260505184219 | 15 | 90 | 1.6 | 0.0 | 0.00 | 0.00 | 0.00 | 10 | 710.4 |
| 20260505184002 | 15 | 0 | 1.6 | 0.0 | 0.00 | 0.00 | 0.00 | 10 | 710.4 |
| 20260505183853 | 15 | 45 | 1.6 | 0.0 | 0.00 | 0.00 | 0.00 | 10 | 710.4 |
| 20260505183745 | 15 | 90 | 1.6 | 0.0 | 0.00 | 0.00 | 0.00 | 10 | 710.5 |
| 20260505183636 | 15 | 90 | 1.6 | 0.0 | 0.00 | 0.00 | 0.00 | 10 | 710.5 |
| 20260505183528 | 15 | 90 | 1.6 | 0.0 | 0.00 | 0.00 | 0.00 | 10 | 710.5 |
| 20260505183311 | 15 | 0 | 1.6 | 0.0 | 0.00 | 0.00 | 0.00 | 10 | 710.5 |
| 20260505183202 | 15 | 90 | 1.6 | 0.0 | 0.00 | 0.00 | 0.00 | 10 | 710.6 |
| 20260505183054 | 15 | 90 | 1.6 | 0.0 | 0.00 | 0.00 | 0.00 | 10 | 710.6 |
| 20260505182936 | 15 | 135 | 1.6 | 0.0 | 0.00 | 0.00 | 0.00 | 10 | 710.6 |